Regional Weather Roundup
Issued by NWS

Home | Current Version | Previous Version | Text Only | Print | Product List | Glossary Off
Versions: 1 2 3 4 5 6 7 8 9 10 11 12 13 14 15 16 17 18 19 20 21 22 23 24 25 26 27 28 29 30 31 32 33 34 35 36 37 38 39 40 41 42 43 44 45 46 47 48 49 50

000
ASUS43 KLOT 180810
RWRIL

ILLINOIS REGIONAL WEATHER ROUNDUP
NATIONAL WEATHER SERVICE CHICAGO/ROMEOVILLE IL
300 AM CDT THU SEP 18 2014

NOTE: "FAIR" INDICATES FEW OR NO CLOUDS BELOW 12,000 FEET WITH NO
SIGNIFICANT WEATHER AND/OR OBSTRUCTIONS TO VISIBILITY.

* THESE STATIONS ARE NOT UNDER NWS QUALITY CONTROL. THEY ALSO MAY NOT
  REPORT WEATHER SUCH AS PRECIPITATION OR FOG.

ILZ001-002-007-009-015-016-024-180900-
NORTHWEST ILLINOIS

CITY           SKY/WX    TMP DP  RH WIND       PRES   REMARKS
MOLINE         PTCLDY    48  46  93 CALM      30.04S
STERLING*      PTCLDY    48  45  87 CALM      30.05S
SAVANNA*       PTCLDY    50  48  93 CALM      30.04S FOG
$$

ILZ003-004-008-010-011-017-018-180900-
NORTH CENTRAL ILLINOIS

CITY           SKY/WX    TMP DP  RH WIND       PRES   REMARKS
ROCKFORD       CLEAR     48  45  89 CALM      30.08S
FREEPORT*      PTCLDY    44  43  96 CALM      30.08R
ROCHELLE*      CLEAR     46  45  94 CALM      30.06R FOG
DE KALB*       CLEAR     50  46  87 S3        30.06S
PERU*          CLEAR     50  48  92 E3        30.05S
$$

ILZ005-006-012>014-019>023-180900-
NORTHEAST ILLINOIS

CITY           SKY/WX    TMP DP  RH WIND       PRES   REMARKS
CHICAGO-OHARE  CLEAR     55  49  80 CALM      30.05S
CHICAGO-MIDWAY CLEAR     56  50  80 CALM      30.05R
AURORA         CLEAR     46  43  89 CALM      30.06R
LANSING*       CLEAR     47  46  97 CALM      30.05S
JOLIET*        CLEAR     47  46  96 CALM      30.07R FOG
WAUKEGAN       CLEAR     49  47  93 W3        30.05R
DUPAGE AIRPORT CLEAR     48  46  93 N3        30.05S
KANKAKEE*      CLEAR     47  47  99 CALM      30.06S FOG
WHEELING       CLEAR     51  47  86 CALM      30.07S
MORRIS*        CLEAR     49  49 100 CALM      30.05S FOG
ROMEOVILLE*    CLEAR     49  48  97 W3        30.06R
NORTHERLY ISL    N/A     58  49  72 SW1         N/A
$$

LMZ740>746-180900-
SOUTHERN LAKE MICHIGAN

STATION/POSITION SKY/WX   TEMP    WIND        PRES    VSBY  WAVE
                          AIR SEA DIR/SP/G                  HT/PER
                          (F)     (DEG/KT/KT) (MB)    (MI)  (FT/S)
SOUTHERN BUOY              63 65  240/  6/  8 1017.5R         0
WAUKEGAN HARBOR            56     280/  4/  4   N/A
HARRISON CRIB              60     210/  4/  5   N/A
BURNHAM HARBOR             57     250/  1/  5   N/A
CALUMET HARBOR             56     210/  2/  3 1016.3S
MICHIGAN CITY              54     120/  8/  9   N/A
MICHIGAN CITY 6N           59 64  150/  4/  6   N/A           0
ST. JOSEPH                 62 67  110/  4/  4   N/A           0
$$

ILZ025>027-034>036-040-047-049-050-058-095>099-180900-
WEST-CENTRAL ILLINOIS

CITY           SKY/WX    TMP DP  RH WIND       PRES   REMARKS
QUINCY         FOG       49  48  97 NE3       30.00F VSB 1/2
GALESBURG*     CLEAR     46  45  96 CALM      30.03F FOG
MACOMB*        FOG       43  43 100 CALM      30.05S VSB 1/2
JACKSONVILLE*  FOG       49  48  97 NE5       30.02F VSB 1/2
PITTSFIELD*    FOG       53  52  95 NE3       30.01F VSB 1/4
$$

ILZ028>032-037-038-041>044-048-051>054-059>061-180900-
CENTRAL ILLINOIS

CITY           SKY/WX    TMP DP  RH WIND       PRES   REMARKS
PONTIAC        CLEAR     52  50  93 E3        30.04S
DECATUR        CLEAR     50  48  93 NE3       30.03F FOG
PEORIA         CLEAR     52  49  89 CALM      30.04S FOG
LACON*         FOG       47  46  97 CALM      30.04S VSB 1/2
LINCOLN*       CLEAR     52  51  95 CALM      30.02S
SPRINGFIELD    CLEAR     51  48  89 NE3       30.02F
TAYLORVILLE    FOG       45  45 100 N3        30.02S VSB 1/2
$$

ILZ033-039-045-046-055>057-062-063-180900-
EAST-CENTRAL ILLINOIS

CITY           SKY/WX    TMP DP  RH WIND       PRES   REMARKS
CHAMPAIGN      PTCLDY    51  50  96 N3        30.04S FOG
DANVILLE*      CLEAR     47  47  97 CALM      30.02S
RANTOUL*       CLEAR     54  50  87 NW5       30.05S
MATTOON        CLEAR     51  49  92 NE3       30.02S FOG
PARIS*         CLEAR     49  49  99 CALM      30.04S FOG
$$

ILZ079-100>102-180900-
SOUTHWEST ILLINOIS

CITY           SKY/WX    TMP DP  RH WIND       PRES   REMARKS
ALTON          CLOUDY    59  56  89 CALM      30.00F
BELLEVILLE     CLOUDY    60  60  97 N2        29.98F
CAHOKIA*       CLOUDY    62  57  83 E5        29.98F
SPARTA*        FOG       58  56  94 E3        29.99F VSB 1
$$

ILZ064>066-069>071-074>076-080>082-084>086-088>090-092>094-180900-
SOUTH-CENTRAL ILLINOIS

CITY           SKY/WX    TMP DP  RH WIND       PRES   REMARKS
CARBONDALE     CLOUDY    61  58  90 NE3       29.98S
CAIRO*         PTCLDY    58  56  92 CALM      29.96F FOG
EFFINGHAM*     FOG       51  49  92 CALM      30.02R VSB 1/2
MARION         PTCLDY    59  57  94 N3        29.98F FOG
MT. VERNON     CLOUDY    61  54  77 NE7       30.01S
CENTRALIA*     CLOUDY    60  54  79 E5        30.00S
SALEM*         CLOUDY    62  57  83 E5        30.01S
METROPOLIS*    CLOUDY    62  60  95 CALM      29.95F
$$

ILZ067-068-072-073-078-083-087-091-180900-
SOUTHEAST ILLINOIS

CITY           SKY/WX    TMP DP  RH WIND       PRES   REMARKS
LAWRENCEVILLE  MOCLDY    55  53  93 E6        30.02S FOG
FLORA*         CLEAR     59  55  85 CALM      30.02S
FAIRFIELD*     CLOUDY   N/A N/A N/A CALM      30.00S
HARRISBURG*    CLOUDY    61  58  90 CALM      29.99F
ROBINSON*      FOG       53  52  99 CALM      30.03S VSB 1/2
CARMI*         CLOUDY    62  57  83 NE3       29.99F
$$

ABBREVIATIONS USED IN REMARKS
   TC - TEMPERATURE IN CELSIUS
  WCI - WIND CHILL INDEX
   HX - HEAT INDEX
  VSB - VISIBILITY
$$



USA.gov is the U.S. government's official web portal to all federal, state and local government web resources and services.